Location: Beneden-Haastrecht
(52.0012°N, 4.7557°E)
Time: 03:03:11
(UTC+00:00)

Cosmos 2369 Rocket - Pass Details

Date: 24 October 2020
Orbit: 827 x 854 km, 71.0° (Epoch: 27 November)

Event Time Altitude Azimuth Distance (km) Brightness Sun altitude
Rises 18:48:06 0° 268° (W) 3,408 6.8 -22.2°
Reaches altitude 10° 18:51:19 10° 286° (WNW) 2,480 5.7 -22.7°
Maximum altitude 18:55:16 19° 330° (NNW) 1,937 4.5 -23.3°
Drops below altitude 10° 18:59:14 10° 15° (NNE) 2,495 4.6 -23.9°
Enters shadow 19:01:04 - 26° (NNE) 2,993 4.9 -24.2°
